Location: T. Spence Memorial Observatory
(32.7356°N, 82.2098°W)
Time: 18:23:57
(UTC-04:00)

Cosmos 2219 - Visible Passes

Search period start: 20 August 2014 00:00
Search period end: 30 August 2014 00:00
Orbit: 835 x 860 km, 71.1° (Epoch: 20 August)

Date Brightness Start Highest point End Pass type
(mag) Time Alt. Az. Time Alt. Az. Time Alt. Az.
20 Aug 5.6 02:30:03 10° N 02:31:55 18° NNE 02:31:55 18° NNE visible
20 Aug 5.6 04:13:47 10° NW 04:13:47 10° NW 04:13:47 10° NW visible
21 Aug 5.7 02:16:45 10° N 02:18:06 16° NNE 02:18:06 16° NNE visible
22 Aug 5.9 02:03:27 10° N 02:04:24 14° NNE 02:04:24 14° NNE visible
23 Aug 6.0 01:50:09 10° N 01:50:46 12° NNE 01:50:46 12° NNE visible
24 Aug 6.0 01:36:51 10° N 01:37:13 11° N 01:37:13 11° N visible
25 Aug 6.1 01:23:33 10° N 01:23:43 11° N 01:23:43 11° N visible
26 Aug 6.1 01:10:15 10° N 01:10:16 10° N 01:10:16 10° N visible
